• In Uzbekistan
  • List of Countries
  • For 7 days
  • Water Temperature
  • Satellite Maps
  • Weather Map
  • Weather Widgets
  • user-avatar
    Login

    Hourly Weather Xi'an

    Today, 22 July, Monday

    Time Temperature Precipitation Wind Pressure Humidity
    00:00 +31°C° 0 mm 2 mps 717 mmHg 57%
    01:00 +31°C° 0 mm 2 mps 717 mmHg 59%
    02:00 +30°C° 0.2 mm 2 mps 717 mmHg 63%
    03:00 +29°C° 0.2 mm 3 mps 717 mmHg 66%
    04:00 +29°C° 0.2 mm 3 mps 717 mmHg 70%
    05:00 +29°C° 0.3 mm 4 mps 718 mmHg 69%
    06:00 +29°C° 0.3 mm 4 mps 718 mmHg 68%
    07:00 +29°C° 0 mm 4 mps 719 mmHg 71%
    08:00 +29°C° 1.1 mm 4 mps 719 mmHg 72%
    09:00 +29°C° 1.1 mm 4 mps 719 mmHg 73%
    10:00 +29°C° 1.1 mm 5 mps 719 mmHg 73%
    11:00 +28°C° 3.4 mm 4 mps 718 mmHg 77%
    12:00 +27°C° 3.4 mm 4 mps 718 mmHg 81%
    13:00 +27°C° 0 mm 2 mps 718 mmHg 85%
    14:00 +28°C° 0 mm 2 mps 718 mmHg 78%
    15:00 +28°C° 0 mm 1 mps 717 mmHg 71%
    16:00 +29°C° 0 mm 1 mps 717 mmHg 65%
    17:00 +29°C° 0 mm 1 mps 717 mmHg 65%
    18:00 +29°C° 0 mm 1 mps 718 mmHg 64%
    19:00 +28°C° 0 mm 1 mps 718 mmHg 64%
    20:00 +28°C° 0 mm 1 mps 718 mmHg 65%
    21:00 +28°C° 0 mm 1 mps 718 mmHg 65%
    22:00 +25°C° 0 mm 0 mps 718 mmHg 66%
    23:00 +25°C° 0 mm 0 mps 718 mmHg 66%

    Tomorrow, 23 July, Tuesday

    Time Temperature Precipitation Wind Pressure Humidity
    00:00 +25°C° 0 mm 0 mps 718 mmHg 67%
    01:00 +25°C° 0 mm 0 mps 718 mmHg 67%
    02:00 +27°C° 0 mm 1 mps 718 mmHg 67%
    03:00 +27°C° 0 mm 1 mps 717 mmHg 67%
    04:00 +26°C° 0 mm 1 mps 717 mmHg 67%
    05:00 +27°C° 0 mm 1 mps 718 mmHg 65%
    06:00 +28°C° 0 mm 1 mps 718 mmHg 63%
    07:00 +29°C° 0 mm 1 mps 718 mmHg 60%
    08:00 +30°C° 0 mm 1 mps 718 mmHg 55%
    09:00 +32°C° 0 mm 1 mps 718 mmHg 50%
    10:00 +35°C° 0 mm 2 mps 718 mmHg 44%
    11:00 +35°C° 0 mm 1 mps 718 mmHg 41%
    12:00 +37°C° 0 mm 1 mps 718 mmHg 38%
    13:00 +39°C° 0 mm 1 mps 717 mmHg 35%
    14:00 +39°C° 0 mm 1 mps 717 mmHg 34%
    15:00 +39°C° 0 mm 2 mps 717 mmHg 34%
    16:00 +39°C° 0 mm 2 mps 717 mmHg 33%
    17:00 +38°C° 0 mm 2 mps 717 mmHg 38%
    18:00 +36°C° 0 mm 3 mps 717 mmHg 44%
    19:00 +34°C° 0 mm 3 mps 717 mmHg 49%
    20:00 +33°C° 0 mm 3 mps 717 mmHg 50%
    21:00 +32°C° 0 mm 2 mps 717 mmHg 50%
    22:00 +31°C° 0 mm 2 mps 718 mmHg 51%
    23:00 +31°C° 0 mm 2 mps 718 mmHg 51%

    Day after tomorrow, 24 July, Wednesday

    Time Temperature Precipitation Wind Pressure Humidity
    00:00 +31°C° 0 mm 1 mps 718 mmHg 50%
    01:00 +30°C° 0 mm 1 mps 717 mmHg 50%
    02:00 +30°C° 0 mm 1 mps 717 mmHg 50%
    03:00 +30°C° 0 mm 1 mps 717 mmHg 51%
    04:00 +29°C° 0 mm 1 mps 717 mmHg 51%
    05:00 +30°C° 0 mm 1 mps 718 mmHg 51%
    06:00 +31°C° 0 mm 1 mps 718 mmHg 51%
    07:00 +31°C° 0 mm 1 mps 718 mmHg 50%
    08:00 +32°C° 0 mm 1 mps 718 mmHg 47%
    09:00 +35°C° 0 mm 2 mps 718 mmHg 44%
    10:00 +36°C° 0 mm 2 mps 718 mmHg 41%
    11:00 +36°C° 0 mm 2 mps 718 mmHg 40%
    12:00 +37°C° 0 mm 3 mps 718 mmHg 39%
    13:00 +37°C° 0 mm 3 mps 717 mmHg 38%
    14:00 +37°C° 0 mm 3 mps 717 mmHg 37%
    15:00 +38°C° 0 mm 3 mps 717 mmHg 36%
    16:00 +39°C° 0 mm 3 mps 717 mmHg 34%
    17:00 +37°C° 0 mm 3 mps 717 mmHg 39%
    18:00 +36°C° 0 mm 3 mps 717 mmHg 44%
    19:00 +35°C° 0 mm 3 mps 717 mmHg 48%
    20:00 +34°C° 0 mm 3 mps 717 mmHg 50%
    21:00 +33°C° 0 mm 3 mps 718 mmHg 52%
    22:00 +31°C° 0 mm 3 mps 718 mmHg 54%
    23:00 +30°C° 0 mm 2 mps 718 mmHg 55%

    25 July, Thursday

    Time Temperature Precipitation Wind Pressure Humidity
    00:00 +30°C° 0 mm 2 mps 718 mmHg 56%
    01:00 +29°C° 0 mm 2 mps 718 mmHg 56%
    02:00 +29°C° 0 mm 1 mps 718 mmHg 57%
    03:00 +28°C° 0 mm 1 mps 718 mmHg 58%
    04:00 +28°C° 0 mm 1 mps 718 mmHg 60%
    05:00 +29°C° 0 mm 1 mps 718 mmHg 57%
    06:00 +30°C° 0 mm 1 mps 718 mmHg 55%
    07:00 +31°C° 0 mm 1 mps 719 mmHg 53%
    08:00 +33°C° 0 mm 1 mps 719 mmHg 48%
    09:00 +35°C° 0 mm 1 mps 719 mmHg 44%
    10:00 +36°C° 0 mm 1 mps 719 mmHg 39%
    11:00 +39°C° 0 mm 1 mps 718 mmHg 35%
    12:00 +40°C° 0 mm 1 mps 718 mmHg 32%
    13:00 +42°C° 0 mm 1 mps 717 mmHg 28%
    14:00 +42°C° 0 mm 1 mps 717 mmHg 25%
    15:00 +42°C° 0 mm 1 mps 716 mmHg 23%
    16:00 +43°C° 0 mm 2 mps 716 mmHg 21%
    17:00 +41°C° 0 mm 2 mps 716 mmHg 26%
    18:00 +39°C° 0 mm 2 mps 716 mmHg 32%
    19:00 +37°C° 0 mm 3 mps 716 mmHg 38%
    20:00 +36°C° 0 mm 3 mps 716 mmHg 41%
    21:00 +35°C° 0 mm 2 mps 717 mmHg 44%
    22:00 +34°C° 0 mm 2 mps 717 mmHg 48%
    23:00 +32°C° 0 mm 2 mps 717 mmHg 49%

    26 July, Friday

    Time Temperature Precipitation Wind Pressure Humidity
    00:00 +32°C° 0 mm 2 mps 716 mmHg 51%
    01:00 +31°C° 0 mm 2 mps 716 mmHg 52%
    02:00 +31°C° 0 mm 2 mps 716 mmHg 54%
    03:00 +30°C° 0 mm 1 mps 716 mmHg 55%
    04:00 +30°C° 0 mm 1 mps 716 mmHg 56%
    05:00 +31°C° 0 mm 1 mps 716 mmHg 54%
    06:00 +32°C° 0 mm 1 mps 717 mmHg 51%
    07:00 +33°C° 0 mm 1 mps 717 mmHg 49%
    08:00 +35°C° 0 mm 1 mps 717 mmHg 43%
    09:00 +37°C° 0 mm 1 mps 717 mmHg 37%
    10:00 +40°C° 0 mm 1 mps 717 mmHg 31%
    11:00 +42°C° 0 mm 1 mps 716 mmHg 27%
    12:00 +43°C° 0 mm 2 mps 715 mmHg 23%
    13:00 +46°C° 0 mm 2 mps 715 mmHg 19%
    14:00 +46°C° 0 mm 3 mps 714 mmHg 20%
    15:00 +46°C° 0 mm 5 mps 714 mmHg 20%
    16:00 +46°C° 0 mm 6 mps 713 mmHg 21%
    17:00 +44°C° 0 mm 6 mps 713 mmHg 26%
    18:00 +41°C° 0 mm 5 mps 713 mmHg 32%
    19:00 +37°C° 0 mm 5 mps 713 mmHg 37%
    20:00 +36°C° 0 mm 5 mps 714 mmHg 39%
    21:00 +35°C° 0 mm 4 mps 714 mmHg 41%
    22:00 +34°C° 0 mm 4 mps 715 mmHg 44%
    23:00 +34°C° 0 mm 3 mps 715 mmHg 46%

    27 July, Saturday

    Time Temperature Precipitation Wind Pressure Humidity
    00:00 +33°C° 0 mm 3 mps 714 mmHg 48%
    01:00 +32°C° 0 mm 2 mps 714 mmHg 50%
    02:00 +31°C° 0 mm 2 mps 714 mmHg 52%
    03:00 +31°C° 0 mm 2 mps 714 mmHg 53%
    04:00 +31°C° 0 mm 2 mps 714 mmHg 55%
    05:00 +31°C° 0 mm 2 mps 715 mmHg 53%
    06:00 +32°C° 0 mm 1 mps 715 mmHg 51%
    07:00 +33°C° 0 mm 1 mps 715 mmHg 49%
    08:00 +35°C° 0 mm 1 mps 715 mmHg 45%
    09:00 +37°C° 0 mm 1 mps 715 mmHg 40%
    10:00 +40°C° 0 mm 1 mps 715 mmHg 36%
    11:00 +41°C° 0 mm 1 mps 714 mmHg 34%
    12:00 +43°C° 0 mm 1 mps 714 mmHg 31%
    13:00 +44°C° 0 mm 1 mps 713 mmHg 28%
    14:00 +44°C° 0 mm 1 mps 713 mmHg 28%
    15:00 +44°C° 0 mm 1 mps 713 mmHg 27%
    16:00 +45°C° 0 mm 2 mps 713 mmHg 27%
    17:00 +42°C° 0 mm 2 mps 713 mmHg 33%
    18:00 +40°C° 0 mm 3 mps 713 mmHg 38%
    19:00 +39°C° 0 mm 3 mps 713 mmHg 44%
    20:00 +38°C° 0 mm 3 mps 714 mmHg 46%
    21:00 +37°C° 0 mm 3 mps 714 mmHg 49%
    22:00 +36°C° 0 mm 3 mps 715 mmHg 51%
    23:00 +35°C° 0 mm 2 mps 715 mmHg 53%
    Show more